Time,TemperatureF,DewpointF,PressureIn,WindDirection,WindDirectionDegrees,WindSpeedMPH,WindSpeedGustMPH,Humidity,HourlyPrecipIn,Conditions,Clouds,dailyrainin,SoftwareType,DateUTC
2013-02-18 00:02:00,27.9,19.4,29.97,NNW,338,0.0,0.0,70,0.00,,,0.00,WUHU216HW,2013-02-18 08:02:00,
2013-02-18 00:07:00,27.9,19.4,29.97,NNW,338,0.0,0.0,70,0.00,,,0.00,WUHU216HW,2013-02-18 08:07:00,
2013-02-18 00:12:00,27.7,19.3,29.97,NNW,338,0.0,0.2,70,0.00,,,0.00,WUHU216HW,2013-02-18 08:12:00,
2013-02-18 00:17:00,27.7,19.3,29.96,NNW,338,0.0,0.2,70,0.00,,,0.00,WUHU216HW,2013-02-18 08:17:00,
2013-02-18 00:22:00,27.7,19.3,29.96,NNW,338,0.4,0.4,70,0.00,,,0.00,WUHU216HW,2013-02-18 08:22:00,
2013-02-18 00:27:00,27.7,19.3,29.96,NNW,338,0.0,0.4,70,0.00,,,0.00,WUHU216HW,2013-02-18 08:27:00,
2013-02-18 00:32:00,27.7,19.3,29.96,NNW,338,0.0,0.4,70,0.00,,,0.00,WUHU216HW,2013-02-18 08:32:00,
2013-02-18 00:37:00,27.7,19.3,29.96,North,0,0.2,0.2,70,0.00,,,0.00,WUHU216HW,2013-02-18 08:37:00,
2013-02-18 00:42:00,27.7,19.3,29.96,SSW,203,0.0,0.2,70,0.00,,,0.00,WUHU216HW,2013-02-18 08:42:00,
2013-02-18 00:47:00,27.7,19.3,29.96,East,90,0.0,0.4,70,0.00,,,0.00,WUHU216HW,2013-02-18 08:47:00,
2013-02-18 00:52:00,27.5,19.1,29.96,East,90,0.0,0.4,70,0.00,,,0.00,WUHU216HW,2013-02-18 08:52:00,
2013-02-18 00:57:00,27.4,18.9,29.95,East,90,0.0,0.0,70,0.00,,,0.00,WUHU216HW,2013-02-18 08:57:00,
2013-02-18 01:02:00,27.2,18.7,29.95,ENE,68,0.0,0.2,70,0.00,,,0.00,WUHU216HW,2013-02-18 09:02:00,
2013-02-18 01:07:00,27.2,18.7,29.95,NE,45,0.2,0.2,70,0.00,,,0.00,WUHU216HW,2013-02-18 09:07:00,
2013-02-18 01:12:00,27.2,19.0,29.95,NNE,23,0.0,0.2,71,0.00,,,0.00,WUHU216HW,2013-02-18 09:12:00,
2013-02-18 01:17:00,27.4,19.2,29.95,NNE,23,0.0,0.0,71,0.00,,,0.00,WUHU216HW,2013-02-18 09:17:00,
2013-02-18 01:22:00,27.4,19.2,29.94,NNE,23,0.0,0.0,71,0.00,,,0.00,WUHU216HW,2013-02-18 09:22:00,
2013-02-18 01:28:00,27.4,19.2,29.95,NNE,23,0.0,0.0,71,0.00,,,0.00,WUHU216HW,2013-02-18 09:28:00,
2013-02-18 01:33:00,27.5,19.4,29.94,East,90,0.0,0.4,71,0.00,,,0.00,WUHU216HW,2013-02-18 09:33:00,
2013-02-18 01:38:00,27.5,19.4,29.94,ENE,68,0.0,0.4,71,0.00,,,0.00,WUHU216HW,2013-02-18 09:38:00,
2013-02-18 01:43:00,27.5,19.4,29.94,NW,315,0.0,0.4,71,0.00,,,0.00,WUHU216HW,2013-02-18 09:43:00,
2013-02-18 01:48:00,27.5,19.4,29.94,NNW,338,0.0,0.4,71,0.00,,,0.00,WUHU216HW,2013-02-18 09:48:00,
2013-02-18 01:53:00,27.5,19.7,29.94,NNW,338,0.0,0.4,72,0.00,,,0.00,WUHU216HW,2013-02-18 09:53:00,
2013-02-18 01:58:00,27.7,19.5,29.94,ESE,113,0.2,0.4,71,0.00,,,0.00,WUHU216HW,2013-02-18 09:58:00,
2013-02-18 02:03:00,27.7,19.5,29.94,NNE,23,0.7,0.7,71,0.00,,,0.00,WUHU216HW,2013-02-18 10:03:00,
2013-02-18 02:08:00,27.7,19.9,29.94,East,90,0.7,0.7,72,0.00,,,0.00,WUHU216HW,2013-02-18 10:08:00,
2013-02-18 02:13:00,27.7,19.5,29.93,East,90,0.2,1.1,71,0.00,,,0.00,WUHU216HW,2013-02-18 10:13:00,
2013-02-18 02:18:00,27.7,19.5,29.93,ENE,68,0.2,1.1,71,0.00,,,0.00,WUHU216HW,2013-02-18 10:18:00,
2013-02-18 02:23:00,27.7,19.5,29.93,East,90,0.4,0.7,71,0.00,,,0.00,WUHU216HW,2013-02-18 10:23:00,
2013-02-18 02:28:00,27.7,19.5,29.93,ESE,113,0.0,0.7,71,0.00,,,0.00,WUHU216HW,2013-02-18 10:28:00,
2013-02-18 02:33:00,27.7,19.5,29.93,SE,135,0.0,1.1,71,0.00,,,0.00,WUHU216HW,2013-02-18 10:33:00,
2013-02-18 02:38:00,27.7,19.5,29.93,North,0,0.2,1.1,71,0.00,,,0.00,WUHU216HW,2013-02-18 10:38:00,
2013-02-18 02:43:00,27.7,19.5,29.93,WSW,248,0.4,0.4,71,0.00,,,0.00,WUHU216HW,2013-02-18 10:43:00,
2013-02-18 02:48:00,27.5,19.4,29.92,WSW,248,0.7,0.9,71,0.00,,,0.00,WUHU216HW,2013-02-18 10:48:00,
2013-02-18 02:53:00,27.5,19.4,29.92,WSW,248,0.2,1.8,71,0.00,,,0.00,WUHU216HW,2013-02-18 10:53:00,
2013-02-18 02:58:00,27.5,19.4,29.92,West,270,1.1,1.8,71,0.00,,,0.00,WUHU216HW,2013-02-18 10:58:00,
2013-02-18 03:03:00,27.5,19.4,29.92,ENE,68,0.0,1.1,71,0.00,,,0.00,WUHU216HW,2013-02-18 11:03:00,
2013-02-18 03:08:00,27.7,19.5,29.92,SSW,203,0.4,0.7,71,0.00,,,0.00,WUHU216HW,2013-02-18 11:08:00,
2013-02-18 03:13:00,27.7,19.5,29.91,SSW,203,0.4,1.1,71,0.00,,,0.00,WUHU216HW,2013-02-18 11:13:00,
2013-02-18 03:18:00,27.7,19.3,29.91,SE,135,0.2,1.1,70,0.00,,,0.00,WUHU216HW,2013-02-18 11:18:00,
2013-02-18 03:24:00,27.9,19.4,29.91,SSW,203,0.9,0.9,70,0.00,,,0.00,WUHU216HW,2013-02-18 11:24:00,
2013-02-18 03:29:00,28.1,19.6,29.91,SE,135,0.0,0.9,70,0.00,,,0.00,WUHU216HW,2013-02-18 11:29:00,
2013-02-18 03:34:00,28.1,19.6,29.91,SSW,203,0.4,0.9,70,0.00,,,0.00,WUHU216HW,2013-02-18 11:34:00,
2013-02-18 03:39:00,27.9,19.4,29.91,ESE,113,0.0,0.9,70,0.00,,,0.00,WUHU216HW,2013-02-18 11:39:00,
2013-02-18 03:44:00,27.9,19.4,29.91,SSW,203,0.0,0.4,70,0.00,,,0.00,WUHU216HW,2013-02-18 11:44:00,
2013-02-18 03:49:00,27.7,19.3,29.90,South,180,0.0,0.4,70,0.00,,,0.00,WUHU216HW,2013-02-18 11:49:00,
2013-02-18 03:54:00,27.7,19.3,29.90,East,90,0.0,0.0,70,0.00,,,0.00,WUHU216HW,2013-02-18 11:54:00,
2013-02-18 03:59:00,27.7,19.3,29.90,East,90,0.4,0.9,70,0.00,,,0.00,WUHU216HW,2013-02-18 11:59:00,
2013-02-18 04:04:00,27.7,19.3,29.90,SSE,158,0.4,1.8,70,0.00,,,0.00,WUHU216HW,2013-02-18 12:04:00,
2013-02-18 04:09:00,27.7,19.3,29.90,SSW,203,2.2,2.2,70,0.00,,,0.00,WUHU216HW,2013-02-18 12:09:00,
2013-02-18 04:14:00,27.7,19.3,29.90,SE,135,1.1,2.5,70,0.00,,,0.00,WUHU216HW,2013-02-18 12:14:00,
2013-02-18 04:19:00,27.7,19.3,29.90,SSW,203,1.1,2.5,70,0.00,,,0.00,WUHU216HW,2013-02-18 12:19:00,
2013-02-18 04:24:00,27.7,19.3,29.89,SSW,203,2.5,2.5,70,0.00,,,0.00,WUHU216HW,2013-02-18 12:24:00,
2013-02-18 04:29:00,27.7,19.3,29.89,SW,225,1.8,2.5,70,0.00,,,0.00,WUHU216HW,2013-02-18 12:29:00,
2013-02-18 04:34:00,27.7,19.3,29.89,SW,225,2.7,2.7,70,0.00,,,0.00,WUHU216HW,2013-02-18 12:34:00,
2013-02-18 04:39:00,27.7,19.3,29.89,WSW,248,1.1,4.0,70,0.00,,,0.00,WUHU216HW,2013-02-18 12:39:00,
2013-02-18 04:44:00,27.7,19.3,29.89,WNW,293,0.4,4.0,70,0.00,,,0.00,WUHU216HW,2013-02-18 12:44:00,
2013-02-18 04:49:00,27.7,19.3,29.88,North,0,1.1,1.8,70,0.00,,,0.00,WUHU216HW,2013-02-18 12:49:00,
2013-02-18 04:54:00,27.7,19.3,29.89,ESE,113,0.4,1.1,70,0.00,,,0.00,WUHU216HW,2013-02-18 12:54:00,
2013-02-18 04:59:00,27.7,19.3,29.89,SSW,203,0.4,2.2,70,0.00,,,0.00,WUHU216HW,2013-02-18 12:59:00,
2013-02-18 05:05:00,27.7,19.3,29.88,SSW,203,1.1,2.5,70,0.00,,,0.00,WUHU216HW,2013-02-18 13:05:00,
2013-02-18 05:10:00,27.7,19.3,29.88,SSW,203,3.4,3.4,70,0.00,,,0.00,WUHU216HW,2013-02-18 13:10:00,
2013-02-18 05:15:00,27.7,19.3,29.88,SW,225,2.5,4.0,70,0.00,,,0.00,WUHU216HW,2013-02-18 13:15:00,
2013-02-18 05:20:00,27.7,19.3,29.88,WSW,248,4.7,4.7,70,0.00,,,0.00,WUHU216HW,2013-02-18 13:20:00,
2013-02-18 05:25:00,27.7,19.3,29.88,WSW,248,2.0,4.7,70,0.00,,,0.00,WUHU216HW,2013-02-18 13:25:00,
2013-02-18 05:30:00,27.7,19.3,29.87,WSW,248,5.4,5.4,70,0.00,,,0.00,WUHU216HW,2013-02-18 13:30:00,
2013-02-18 05:35:00,27.7,19.3,29.87,SW,225,1.8,5.4,70,0.00,,,0.00,WUHU216HW,2013-02-18 13:35:00,
2013-02-18 05:40:00,27.7,19.3,29.87,SW,225,2.9,4.0,70,0.00,,,0.00,WUHU216HW,2013-02-18 13:40:00,
2013-02-18 05:45:00,27.7,18.9,29.87,WSW,248,1.1,4.0,69,0.00,,,0.00,WUHU216HW,2013-02-18 13:45:00,
2013-02-18 05:50:00,27.7,18.9,29.87,WSW,248,3.1,6.0,69,0.00,,,0.00,WUHU216HW,2013-02-18 13:50:00,
2013-02-18 05:55:00,27.7,18.9,29.87,WSW,248,3.4,6.0,69,0.00,,,0.00,WUHU216HW,2013-02-18 13:55:00,
2013-02-18 06:00:00,27.9,19.1,29.87,WSW,248,3.4,4.9,69,0.00,,,0.00,WUHU216HW,2013-02-18 14:00:00,
2013-02-18 06:05:00,28.1,18.9,29.87,SW,225,1.3,4.9,68,0.00,,,0.00,WUHU216HW,2013-02-18 14:05:00,
2013-02-18 06:10:00,28.3,19.1,29.87,WSW,248,1.8,4.7,68,0.00,,,0.00,WUHU216HW,2013-02-18 14:10:00,
2013-02-18 06:15:00,28.4,18.9,29.86,West,270,0.7,4.7,67,0.00,,,0.00,WUHU216HW,2013-02-18 14:15:00,
2013-02-18 06:20:00,28.4,18.9,29.86,WSW,248,1.1,4.0,67,0.00,,,0.00,WUHU216HW,2013-02-18 14:20:00,
2013-02-18 06:25:00,28.4,18.9,29.86,SW,225,1.1,1.8,67,0.00,,,0.00,WUHU216HW,2013-02-18 14:25:00,
2013-02-18 06:31:00,28.6,19.1,29.86,SSW,203,1.6,2.0,67,0.00,,,0.00,WUHU216HW,2013-02-18 14:31:00,
2013-02-18 06:36:00,28.6,18.7,29.86,NNE,23,0.7,2.0,66,0.00,,,0.00,WUHU216HW,2013-02-18 14:36:00,
2013-02-18 06:41:00,28.6,18.7,29.85,SW,225,0.0,1.6,66,0.00,,,0.00,WUHU216HW,2013-02-18 14:41:00,
2013-02-18 06:46:00,28.8,18.9,29.85,SW,225,3.4,3.4,66,0.00,,,0.00,WUHU216HW,2013-02-18 14:46:00,
2013-02-18 06:51:00,28.8,18.9,29.85,SW,225,0.0,3.4,66,0.00,,,0.00,WUHU216HW,2013-02-18 14:51:00,
2013-02-18 06:56:00,28.8,18.9,29.85,WSW,248,1.3,2.2,66,0.00,,,0.00,WUHU216HW,2013-02-18 14:56:00,
2013-02-18 07:01:00,28.8,18.9,29.85,SW,225,1.1,2.2,66,0.00,,,0.00,WUHU216HW,2013-02-18 15:01:00,
2013-02-18 07:06:00,28.8,18.9,29.85,South,180,1.1,2.5,66,0.00,,,0.00,WUHU216HW,2013-02-18 15:06:00,
2013-02-18 07:11:00,28.8,18.6,29.85,SSW,203,1.1,2.5,65,0.00,,,0.00,WUHU216HW,2013-02-18 15:11:00,
2013-02-18 07:16:00,29.0,18.6,29.85,SSW,203,0.2,2.5,65,0.00,,,0.00,WUHU216HW,2013-02-18 15:16:00,
2013-02-18 07:21:00,28.8,18.6,29.85,ENE,68,0.7,2.5,65,0.00,,,0.00,WUHU216HW,2013-02-18 15:21:00,
2013-02-18 07:26:00,29.0,18.6,29.85,SSW,203,1.8,1.8,65,0.00,,,0.00,WUHU216HW,2013-02-18 15:26:00,
2013-02-18 07:31:00,29.2,18.8,29.85,ENE,68,0.4,1.8,65,0.00,,,0.00,WUHU216HW,2013-02-18 15:31:00,
2013-02-18 07:36:00,29.2,18.8,29.85,NE,45,0.4,1.6,65,0.00,,,0.00,WUHU216HW,2013-02-18 15:36:00,
2013-02-18 07:41:00,29.2,18.8,29.86,NE,45,0.4,1.6,65,0.00,,,0.00,WUHU216HW,2013-02-18 15:41:00,
2013-02-18 07:46:00,29.2,18.8,29.86,SSE,158,0.2,1.1,65,0.00,,,0.00,WUHU216HW,2013-02-18 15:46:00,
2013-02-18 07:51:00,29.3,19.4,29.86,SSE,158,0.0,0.4,66,0.00,,,0.00,WUHU216HW,2013-02-18 15:51:00,
2013-02-18 07:56:00,29.5,19.5,29.85,South,180,0.9,0.9,66,0.00,,,0.00,WUHU216HW,2013-02-18 15:56:00,
2013-02-18 08:02:00,29.7,19.7,29.85,SW,225,0.0,0.9,66,0.00,,,0.00,WUHU216HW,2013-02-18 16:02:00,
2013-02-18 08:07:00,29.9,19.8,29.86,SW,225,0.0,0.4,66,0.00,,,0.00,WUHU216HW,2013-02-18 16:07:00,
2013-02-18 08:12:00,29.7,19.7,29.86,WSW,248,0.2,0.4,66,0.00,,,0.00,WUHU216HW,2013-02-18 16:12:00,
2013-02-18 08:17:00,29.9,19.8,29.86,West,270,0.0,0.9,66,0.00,,,0.00,WUHU216HW,2013-02-18 16:17:00,
2013-02-18 08:22:00,29.9,19.8,29.86,WSW,248,0.0,0.9,66,0.00,,,0.00,WUHU216HW,2013-02-18 16:22:00,
2013-02-18 08:27:00,29.9,19.8,29.86,SSW,203,0.0,0.2,66,0.00,,,0.00,WUHU216HW,2013-02-18 16:27:00,
2013-02-18 08:32:00,29.9,19.8,29.86,SSW,203,0.0,0.7,66,0.00,,,0.00,WUHU216HW,2013-02-18 16:32:00,
2013-02-18 08:37:00,30.2,20.2,29.85,South,180,0.0,0.9,66,0.00,,,0.00,WUHU216HW,2013-02-18 16:37:00,
2013-02-18 08:42:00,30.4,20.3,29.85,SSW,203,1.1,1.1,66,0.00,,,0.00,WUHU216HW,2013-02-18 16:42:00,
2013-02-18 08:47:00,30.8,20.7,29.86,SSE,158,0.4,1.1,66,0.00,,,0.00,WUHU216HW,2013-02-18 16:47:00,
2013-02-18 08:52:00,31.0,20.9,29.85,SSW,203,0.0,0.9,66,0.00,,,0.00,WUHU216HW,2013-02-18 16:52:00,
2013-02-18 08:57:00,31.0,20.9,29.85,SW,225,0.2,0.4,66,0.00,,,0.00,WUHU216HW,2013-02-18 16:57:00,
2013-02-18 09:02:00,31.1,21.1,29.85,SE,135,0.0,0.7,66,0.00,,,0.00,WUHU216HW,2013-02-18 17:02:00,
2013-02-18 09:07:00,31.3,21.2,29.85,ESE,113,0.0,0.7,66,0.00,,,0.00,WUHU216HW,2013-02-18 17:07:00,
2013-02-18 09:12:00,32.0,22.0,29.85,SSW,203,2.5,2.5,66,0.00,,,0.00,WUHU216HW,2013-02-18 17:12:00,
2013-02-18 09:17:00,32.8,22.2,29.85,SE,135,0.4,2.5,65,0.00,,,0.00,WUHU216HW,2013-02-18 17:17:00,
2013-02-18 09:22:00,33.1,21.9,29.86,West,270,0.7,1.8,63,0.00,,,0.00,WUHU216HW,2013-02-18 17:22:00,
2013-02-18 09:27:00,33.7,22.3,29.86,WNW,293,0.9,2.7,63,0.00,,,0.00,WUHU216HW,2013-02-18 17:27:00,
2013-02-18 09:32:00,34.2,22.5,29.86,WNW,293,0.7,3.4,62,0.00,,,0.00,WUHU216HW,2013-02-18 17:32:00,
2013-02-18 09:37:00,34.7,21.9,29.86,WSW,248,1.1,3.4,59,0.00,,,0.00,WUHU216HW,2013-02-18 17:37:00,
2013-02-18 09:42:00,35.1,22.7,29.86,North,0,0.9,4.0,60,0.00,,,0.00,WUHU216HW,2013-02-18 17:42:00,
2013-02-18 09:47:00,35.5,22.6,29.86,NE,45,0.7,4.0,59,0.00,,,0.00,WUHU216HW,2013-02-18 17:47:00,
2013-02-18 09:52:00,35.6,22.0,29.86,SE,135,0.2,3.8,57,0.00,,,0.00,WUHU216HW,2013-02-18 17:52:00,
2013-02-18 09:57:00,36.0,22.2,29.86,NNE,23,0.4,3.8,57,0.00,,,0.00,WUHU216HW,2013-02-18 17:57:00,
2013-02-18 10:02:00,36.5,21.4,29.86,NNE,23,0.2,3.8,54,0.00,,,0.00,WUHU216HW,2013-02-18 18:02:00,
2013-02-18 10:07:00,36.9,20.4,29.86,NW,315,1.6,3.8,51,0.00,,,0.00,WUHU216HW,2013-02-18 18:07:00,
2013-02-18 10:12:00,36.4,20.9,29.86,NNE,23,2.0,4.7,53,0.00,,,0.00,WUHU216HW,2013-02-18 18:12:00,
2013-02-18 10:17:00,36.5,21.9,29.86,NW,315,2.0,4.7,55,0.00,,,0.00,WUHU216HW,2013-02-18 18:17:00,
2013-02-18 10:22:00,36.5,22.3,29.86,NNW,338,2.2,3.4,56,0.00,,,0.00,WUHU216HW,2013-02-18 18:22:00,
2013-02-18 10:27:00,36.4,22.1,29.85,NE,45,1.8,3.8,56,0.00,,,0.00,WUHU216HW,2013-02-18 18:27:00,
2013-02-18 10:32:00,36.4,22.1,29.85,NE,45,2.0,4.9,56,0.00,,,0.00,WUHU216HW,2013-02-18 18:32:00,
2013-02-18 10:37:00,36.5,22.8,29.85,NNW,338,0.4,4.9,57,0.00,,,0.00,WUHU216HW,2013-02-18 18:37:00,
2013-02-18 10:42:00,36.7,22.5,29.85,NNW,338,1.1,2.7,56,0.00,,,0.00,WUHU216HW,2013-02-18 18:42:00,
2013-02-18 10:47:00,36.9,22.2,29.85,WNW,293,1.8,4.5,55,0.00,,,0.00,WUHU216HW,2013-02-18 18:47:00,
2013-02-18 10:52:00,37.1,22.3,29.85,SSW,203,1.1,4.5,55,0.00,,,0.00,WUHU216HW,2013-02-18 18:52:00,
2013-02-18 10:57:00,37.1,21.5,29.85,NE,45,2.0,5.4,53,0.00,,,0.00,WUHU216HW,2013-02-18 18:57:00,
2013-02-18 11:02:00,37.1,21.5,29.85,NE,45,2.0,5.4,53,0.00,,,0.00,WUHU216HW,2013-02-18 19:02:00,
2013-02-18 11:07:00,37.1,22.0,29.85,NNE,23,4.5,4.7,54,0.00,,,0.00,WUHU216HW,2013-02-18 19:07:00,
2013-02-18 11:12:00,37.3,22.1,29.85,North,0,4.3,4.5,54,0.00,,,0.00,WUHU216HW,2013-02-18 19:12:00,
2013-02-18 11:17:00,37.3,22.1,29.85,North,0,0.7,4.9,54,0.00,,,0.00,WUHU216HW,2013-02-18 19:17:00,
2013-02-18 11:23:00,37.6,22.4,29.85,West,270,1.3,4.9,54,0.00,,,0.00,WUHU216HW,2013-02-18 19:23:00,
2013-02-18 11:28:00,37.8,22.6,29.85,NW,315,0.7,2.7,54,0.00,,,0.00,WUHU216HW,2013-02-18 19:28:00,
2013-02-18 11:33:00,37.8,22.1,29.85,WNW,293,3.6,3.6,53,0.00,,,0.00,WUHU216HW,2013-02-18 19:33:00,
2013-02-18 11:38:00,37.3,21.7,29.86,WNW,293,2.5,4.0,53,0.00,,,0.00,WUHU216HW,2013-02-18 19:38:00,
2013-02-18 11:43:00,37.1,22.0,29.85,SW,225,0.0,4.0,54,0.00,,,0.00,WUHU216HW,2013-02-18 19:43:00,
2013-02-18 11:48:00,37.4,22.2,29.85,NW,315,0.4,1.8,54,0.00,,,0.00,WUHU216HW,2013-02-18 19:48:00,
2013-02-18 11:53:00,37.6,22.4,29.84,NW,315,0.4,1.8,54,0.00,,,0.00,WUHU216HW,2013-02-18 19:53:00,
2013-02-18 11:58:00,37.6,22.4,29.84,West,270,1.1,2.9,54,0.00,,,0.00,WUHU216HW,2013-02-18 19:58:00,
2013-02-18 12:03:00,38.0,22.8,29.84,SW,225,0.4,2.9,54,0.00,,,0.00,WUHU216HW,2013-02-18 20:03:00,
2013-02-18 12:08:00,38.2,23.3,29.83,SSW,203,2.5,2.5,55,0.00,,,0.00,WUHU216HW,2013-02-18 20:08:00,
2013-02-18 12:13:00,38.5,23.7,29.83,SW,225,0.2,2.7,55,0.00,,,0.00,WUHU216HW,2013-02-18 20:13:00,
2013-02-18 12:18:00,38.5,23.7,29.83,East,90,1.1,2.7,55,0.00,,,0.00,WUHU216HW,2013-02-18 20:18:00,
2013-02-18 12:23:00,38.5,23.7,29.83,SSW,203,1.8,1.8,55,0.00,,,0.00,WUHU216HW,2013-02-18 20:23:00,
2013-02-18 12:28:00,38.9,23.9,29.83,SSE,158,1.3,1.8,55,0.00,,,0.00,WUHU216HW,2013-02-18 20:28:00,
2013-02-18 12:33:00,39.1,23.7,29.82,SE,135,1.6,2.2,54,0.00,,,0.00,WUHU216HW,2013-02-18 20:33:00,
2013-02-18 12:38:00,39.2,23.4,29.82,SE,135,0.4,2.2,53,0.00,,,0.00,WUHU216HW,2013-02-18 20:38:00,
2013-02-18 12:43:00,39.2,23.4,29.82,SSE,158,0.9,2.7,53,0.00,,,0.00,WUHU216HW,2013-02-18 20:43:00,
2013-02-18 12:48:00,39.4,23.1,29.82,ENE,68,1.3,2.7,52,0.00,,,0.00,WUHU216HW,2013-02-18 20:48:00,
2013-02-18 12:53:00,39.6,23.3,29.82,ESE,113,0.4,2.0,52,0.00,,,0.00,WUHU216HW,2013-02-18 20:53:00,
2013-02-18 12:58:00,39.6,23.3,29.82,SSW,203,1.3,1.6,52,0.00,,,0.00,WUHU216HW,2013-02-18 20:58:00,
2013-02-18 13:03:00,39.6,22.9,29.82,SSW,203,3.6,4.9,51,0.00,,,0.00,WUHU216HW,2013-02-18 21:03:00,
2013-02-18 13:08:00,39.6,22.5,29.82,SSE,158,0.0,4.9,50,0.00,,,0.00,WUHU216HW,2013-02-18 21:08:00,
2013-02-18 13:14:00,39.6,22.5,29.82,NNW,338,0.2,1.8,50,0.00,,,0.00,WUHU216HW,2013-02-18 21:14:00,
2013-02-18 13:19:00,39.4,20.7,29.81,North,0,0.4,4.7,47,0.00,,,0.00,WUHU216HW,2013-02-18 21:19:00,
2013-02-18 13:24:00,39.2,21.1,29.81,SE,135,0.7,4.7,48,0.00,,,0.00,WUHU216HW,2013-02-18 21:24:00,
2013-02-18 13:29:00,39.2,21.6,29.81,SW,225,1.8,2.7,49,0.00,,,0.00,WUHU216HW,2013-02-18 21:29:00,
2013-02-18 13:34:00,39.6,20.9,29.81,West,270,2.5,3.4,47,0.00,,,0.00,WUHU216HW,2013-02-18 21:34:00,
2013-02-18 13:39:00,39.8,21.1,29.81,SW,225,2.5,6.0,47,0.00,,,0.00,WUHU216HW,2013-02-18 21:39:00,
2013-02-18 13:44:00,39.8,21.6,29.81,SW,225,0.4,6.0,48,0.00,,,0.00,WUHU216HW,2013-02-18 21:44:00,
2013-02-18 13:49:00,39.8,21.1,29.81,SW,225,1.6,2.9,47,0.00,,,0.00,WUHU216HW,2013-02-18 21:49:00,
2013-02-18 13:54:00,39.8,21.1,29.81,South,180,0.4,2.9,47,0.00,,,0.00,WUHU216HW,2013-02-18 21:54:00,
2013-02-18 13:59:00,40.0,21.3,29.81,SSW,203,2.9,2.9,47,0.00,,,0.00,WUHU216HW,2013-02-18 21:59:00,
2013-02-18 14:04:00,40.0,20.2,29.81,South,180,5.4,7.4,45,0.00,,,0.00,WUHU216HW,2013-02-18 22:04:00,
2013-02-18 14:09:00,40.0,19.6,29.81,SW,225,4.7,7.4,44,0.00,,,0.00,WUHU216HW,2013-02-18 22:09:00,
2013-02-18 14:14:00,40.0,19.2,29.81,SSW,203,3.1,6.0,43,0.00,,,0.00,WUHU216HW,2013-02-18 22:14:00,
2013-02-18 14:19:00,40.1,19.8,29.81,WSW,248,1.6,6.0,44,0.00,,,0.00,WUHU216HW,2013-02-18 22:19:00,
2013-02-18 14:24:00,40.1,18.8,29.81,SSW,203,6.7,8.3,42,0.00,,,0.00,WUHU216HW,2013-02-18 22:24:00,
2013-02-18 14:29:00,40.1,18.3,29.80,West,270,4.5,8.3,41,0.00,,,0.00,WUHU216HW,2013-02-18 22:29:00,
2013-02-18 14:34:00,40.1,18.3,29.80,SSE,158,0.7,6.7,41,0.00,,,0.00,WUHU216HW,2013-02-18 22:34:00,
2013-02-18 14:39:00,40.1,18.8,29.80,South,180,3.4,6.7,42,0.00,,,0.00,WUHU216HW,2013-02-18 22:39:00,
2013-02-18 14:44:00,40.3,18.5,29.80,East,90,2.5,4.7,41,0.00,,,0.00,WUHU216HW,2013-02-18 22:44:00,
2013-02-18 14:49:00,40.3,18.5,29.80,SW,225,1.3,4.0,41,0.00,,,0.00,WUHU216HW,2013-02-18 22:49:00,
2013-02-18 14:54:00,40.5,19.6,29.80,ESE,113,0.0,2.7,43,0.00,,,0.00,WUHU216HW,2013-02-18 22:54:00,
2013-02-18 14:59:00,40.0,19.6,29.80,North,0,2.5,4.5,44,0.00,,,0.00,WUHU216HW,2013-02-18 22:59:00,
2013-02-18 15:04:00,39.2,20.1,29.80,East,90,1.6,4.5,46,0.00,,,0.00,WUHU216HW,2013-02-18 23:04:00,
2013-02-18 15:09:00,38.9,20.3,29.80,North,0,0.4,5.4,47,0.00,,,0.00,WUHU216HW,2013-02-18 23:09:00,
2013-02-18 15:14:00,38.5,21.0,29.80,SE,135,1.1,5.4,49,0.00,,,0.00,WUHU216HW,2013-02-18 23:14:00,
2013-02-18 15:20:00,38.2,21.6,29.80,NNW,338,1.8,4.9,51,0.00,,,0.00,WUHU216HW,2013-02-18 23:20:00,
2013-02-18 15:25:00,37.8,21.2,29.80,ENE,68,1.8,4.9,51,0.00,,,0.00,WUHU216HW,2013-02-18 23:25:00,
2013-02-18 15:30:00,37.8,21.7,29.80,NE,45,3.4,3.4,52,0.00,,,0.00,WUHU216HW,2013-02-18 23:30:00,
2013-02-18 15:35:00,37.4,21.4,29.80,SE,135,0.2,3.8,52,0.00,,,0.00,WUHU216HW,2013-02-18 23:35:00,
2013-02-18 15:40:00,37.4,21.4,29.80,NNE,23,2.5,3.8,52,0.00,,,0.00,WUHU216HW,2013-02-18 23:40:00,
2013-02-18 15:45:00,37.6,21.5,29.80,NNW,338,0.2,2.7,52,0.00,,,0.00,WUHU216HW,2013-02-18 23:45:00,
2013-02-18 15:50:00,37.6,21.5,29.80,NE,45,0.7,4.5,52,0.00,,,0.00,WUHU216HW,2013-02-18 23:50:00,
2013-02-18 15:55:00,37.4,21.4,29.80,East,90,4.0,4.5,52,0.00,,,0.00,WUHU216HW,2013-02-18 23:55:00,
2013-02-18 16:00:00,37.3,21.3,29.80,ENE,68,2.0,4.0,52,0.00,,,0.00,WUHU216HW,2013-02-19 00:00:00,
2013-02-18 16:05:00,37.3,21.7,29.80,North,0,0.4,2.7,53,0.00,,,0.00,WUHU216HW,2013-02-19 00:05:00,
2013-02-18 16:10:00,37.1,21.5,29.80,NNE,23,2.0,4.9,53,0.00,,,0.00,WUHU216HW,2013-02-19 00:10:00,
2013-02-18 16:15:00,36.9,21.3,29.79,North,0,2.0,4.9,53,0.00,,,0.00,WUHU216HW,2013-02-19 00:15:00,
2013-02-18 16:20:00,36.9,21.8,29.79,NNE,23,1.8,2.5,54,0.00,,,0.00,WUHU216HW,2013-02-19 00:20:00,
2013-02-18 16:25:00,36.7,21.6,29.80,NNE,23,3.4,3.4,54,0.00,,,0.00,WUHU216HW,2013-02-19 00:25:00,
2013-02-18 16:30:00,36.5,21.4,29.79,North,0,1.8,3.4,54,0.00,,,0.00,WUHU216HW,2013-02-19 00:30:00,
2013-02-18 16:35:00,36.5,21.4,29.79,North,0,1.1,2.2,54,0.00,,,0.00,WUHU216HW,2013-02-19 00:35:00,
2013-02-18 16:40:00,36.5,21.4,29.79,NE,45,1.1,1.6,54,0.00,,,0.00,WUHU216HW,2013-02-19 00:40:00,
2013-02-18 16:46:00,36.4,21.7,29.79,NNE,23,1.6,2.7,55,0.00,,,0.00,WUHU216HW,2013-02-19 00:46:00,
2013-02-18 16:51:00,36.2,22.0,29.79,WSW,248,0.4,2.7,56,0.00,,,0.00,WUHU216HW,2013-02-19 00:51:00,
2013-02-18 16:56:00,36.0,21.8,29.79,East,90,0.4,2.5,56,0.00,,,0.00,WUHU216HW,2013-02-19 00:56:00,
2013-02-18 17:01:00,36.0,21.8,29.79,NE,45,1.1,1.8,56,0.00,,,0.00,WUHU216HW,2013-02-19 01:01:00,
2013-02-18 17:06:00,36.0,21.8,29.79,North,0,0.4,1.1,56,0.00,,,0.00,WUHU216HW,2013-02-19 01:06:00,
2013-02-18 17:11:00,36.0,21.8,29.78,NNW,338,0.4,0.7,56,0.00,,,0.00,WUHU216HW,2013-02-19 01:11:00,
2013-02-18 17:16:00,36.0,22.2,29.79,SW,225,0.4,0.4,57,0.00,,,0.00,WUHU216HW,2013-02-19 01:16:00,
2013-02-18 17:21:00,35.8,22.1,29.79,West,270,0.0,0.4,57,0.00,,,0.00,WUHU216HW,2013-02-19 01:21:00,
2013-02-18 17:26:00,35.6,22.0,29.78,NNW,338,0.2,0.2,57,0.00,,,0.00,WUHU216HW,2013-02-19 01:26:00,
2013-02-18 17:31:00,35.3,22.0,29.78,NNE,23,1.1,1.1,58,0.00,,,0.00,WUHU216HW,2013-02-19 01:31:00,
2013-02-18 17:36:00,35.1,21.8,29.78,North,0,0.2,1.6,58,0.00,,,0.00,WUHU216HW,2013-02-19 01:36:00,
2013-02-18 17:41:00,34.9,21.6,29.78,East,90,0.0,1.6,58,0.00,,,0.00,WUHU216HW,2013-02-19 01:41:00,
2013-02-18 17:46:00,34.9,21.6,29.78,East,90,0.2,0.4,58,0.00,,,0.00,WUHU216HW,2013-02-19 01:46:00,
2013-02-18 17:51:00,34.9,21.6,29.78,NE,45,0.0,0.4,58,0.00,,,0.00,WUHU216HW,2013-02-19 01:51:00,
2013-02-18 17:56:00,34.9,21.6,29.78,North,0,0.4,0.7,58,0.00,,,0.00,WUHU216HW,2013-02-19 01:56:00,
2013-02-18 18:01:00,34.7,21.9,29.78,NNE,23,0.4,4.0,59,0.00,,,0.00,WUHU216HW,2013-02-19 02:01:00,
2013-02-18 18:06:00,34.6,21.7,29.78,ESE,113,0.0,4.0,59,0.00,,,0.00,WUHU216HW,2013-02-19 02:06:00,
2013-02-18 18:11:00,34.6,21.7,29.78,SSE,158,0.2,0.4,59,0.00,,,0.00,WUHU216HW,2013-02-19 02:11:00,
2013-02-18 18:16:00,34.6,21.7,29.78,SE,135,0.2,0.4,59,0.00,,,0.00,WUHU216HW,2013-02-19 02:16:00,
2013-02-18 18:21:00,34.6,21.7,29.78,East,90,0.4,1.1,59,0.00,,,0.00,WUHU216HW,2013-02-19 02:21:00,
2013-02-18 18:26:00,34.4,21.5,29.77,NE,45,1.1,1.3,59,0.00,,,0.00,WUHU216HW,2013-02-19 02:26:00,
2013-02-18 18:31:00,34.4,21.5,29.77,ENE,68,0.4,1.3,59,0.00,,,0.00,WUHU216HW,2013-02-19 02:31:00,
2013-02-18 18:36:00,34.2,21.3,29.77,ENE,68,1.6,1.6,59,0.00,,,0.00,WUHU216HW,2013-02-19 02:36:00,
2013-02-18 18:41:00,34.2,21.3,29.77,ENE,68,0.0,1.6,59,0.00,,,0.00,WUHU216HW,2013-02-19 02:41:00,
2013-02-18 18:46:00,34.0,21.2,29.78,ESE,113,1.1,1.1,59,0.00,,,0.00,WUHU216HW,2013-02-19 02:46:00,
2013-02-18 18:51:00,33.8,21.4,29.77,East,90,0.4,1.1,60,0.00,,,0.00,WUHU216HW,2013-02-19 02:51:00,
2013-02-18 18:56:00,33.8,21.4,29.77,ESE,113,1.1,1.1,60,0.00,,,0.00,WUHU216HW,2013-02-19 02:56:00,
2013-02-18 19:01:00,33.7,21.2,29.77,East,90,1.1,1.3,60,0.00,,,0.00,WUHU216HW,2013-02-19 03:01:00,
2013-02-18 19:06:00,33.5,21.4,29.77,ESE,113,0.2,1.3,61,0.00,,,0.00,WUHU216HW,2013-02-19 03:06:00,
2013-02-18 19:11:00,33.5,21.4,29.77,ESE,113,0.4,1.3,61,0.00,,,0.00,WUHU216HW,2013-02-19 03:11:00,
2013-02-18 19:16:00,33.3,21.3,29.77,East,90,0.4,1.1,61,0.00,,,0.00,WUHU216HW,2013-02-19 03:16:00,
2013-02-18 19:21:00,33.3,21.3,29.77,ENE,68,0.2,0.9,61,0.00,,,0.00,WUHU216HW,2013-02-19 03:21:00,
2013-02-18 19:26:00,33.1,21.2,29.76,ESE,113,1.1,1.1,61,0.00,,,0.00,WUHU216HW,2013-02-19 03:26:00,
2013-02-18 19:31:00,33.1,21.2,29.76,NE,45,1.1,1.3,61,0.00,,,0.00,WUHU216HW,2013-02-19 03:31:00,
2013-02-18 19:36:00,33.1,21.5,29.76,ENE,68,1.1,1.3,62,0.00,,,0.00,WUHU216HW,2013-02-19 03:36:00,
2013-02-18 19:41:00,32.9,21.3,29.76,ESE,113,0.4,1.1,62,0.00,,,0.00,WUHU216HW,2013-02-19 03:41:00,
2013-02-18 19:46:00,32.9,21.3,29.76,East,90,0.4,1.1,62,0.00,,,0.00,WUHU216HW,2013-02-19 03:46:00,
2013-02-18 19:51:00,32.8,21.2,29.76,ESE,113,0.2,0.9,62,0.00,,,0.00,WUHU216HW,2013-02-19 03:51:00,
2013-02-18 19:56:00,32.8,21.2,29.76,SE,135,0.0,0.4,62,0.00,,,0.00,WUHU216HW,2013-02-19 03:56:00,
2013-02-18 20:01:00,32.4,20.9,29.75,SE,135,0.0,0.4,62,0.00,,,0.00,WUHU216HW,2013-02-19 04:01:00,
2013-02-18 20:06:00,32.2,20.7,29.75,SSE,158,0.7,0.7,62,0.00,,,0.00,WUHU216HW,2013-02-19 04:06:00,
2013-02-18 20:11:00,32.0,20.5,29.75,SSE,158,0.2,1.6,62,0.00,,,0.00,WUHU216HW,2013-02-19 04:11:00,
2013-02-18 20:16:00,32.0,20.5,29.75,SW,225,1.3,1.6,62,0.00,,,0.00,WUHU216HW,2013-02-19 04:16:00,
2013-02-18 20:21:00,31.9,20.3,29.75,SW,225,0.4,1.6,62,0.00,,,0.00,WUHU216HW,2013-02-19 04:21:00,
2013-02-18 20:27:00,31.7,20.2,29.75,WSW,248,1.6,1.8,62,0.00,,,0.00,WUHU216HW,2013-02-19 04:27:00,
2013-02-18 20:32:00,31.3,19.8,29.75,West,270,4.7,4.7,62,0.00,,,0.00,WUHU216HW,2013-02-19 04:32:00,
2013-02-18 20:37:00,31.3,19.8,29.74,WSW,248,1.8,4.7,62,0.00,,,0.00,WUHU216HW,2013-02-19 04:37:00,
2013-02-18 20:42:00,31.1,19.6,29.74,West,270,4.9,5.4,62,0.00,,,0.00,WUHU216HW,2013-02-19 04:42:00,
2013-02-18 20:47:00,31.0,19.4,29.74,WSW,248,2.2,5.4,62,0.00,,,0.00,WUHU216HW,2013-02-19 04:47:00,
2013-02-18 20:52:00,30.6,19.1,29.74,West,270,1.8,4.7,62,0.00,,,0.00,WUHU216HW,2013-02-19 04:52:00,
2013-02-18 20:57:00,30.4,18.9,29.74,WNW,293,2.0,3.8,62,0.00,,,0.00,WUHU216HW,2013-02-19 04:57:00,
2013-02-18 21:00:00,30.4,18.9,29.74,West,270,4.3,4.3,62,0.00,,,0.00,WUHU216HW,2013-02-19 05:00:00,
2013-02-18 21:05:00,30.2,18.7,29.73,NW,315,2.0,4.3,62,0.00,,,0.00,WUHU216HW,2013-02-19 05:05:00,
2013-02-18 21:10:00,30.1,18.5,29.73,West,270,1.6,3.4,62,0.00,,,0.00,WUHU216HW,2013-02-19 05:10:00,
2013-02-18 21:15:00,30.1,18.5,29.73,West,270,1.8,3.4,62,0.00,,,0.00,WUHU216HW,2013-02-19 05:15:00,
2013-02-18 21:20:00,30.1,18.5,29.73,West,270,2.9,3.1,62,0.00,,,0.00,WUHU216HW,2013-02-19 05:20:00,
2013-02-18 21:25:00,29.9,18.4,29.73,SSW,203,1.1,3.1,62,0.00,,,0.00,WUHU216HW,2013-02-19 05:25:00,
2013-02-18 21:30:00,29.9,18.4,29.73,WSW,248,2.5,2.5,62,0.00,,,0.00,WUHU216HW,2013-02-19 05:30:00,
2013-02-18 21:35:00,29.5,18.1,29.73,SW,225,0.7,2.5,62,0.00,,,0.00,WUHU216HW,2013-02-19 05:35:00,
2013-02-18 21:40:00,29.3,17.9,29.73,SW,225,1.3,2.0,62,0.00,,,0.00,WUHU216HW,2013-02-19 05:40:00,
2013-02-18 21:45:00,29.2,17.7,29.73,WSW,248,0.4,2.0,62,0.00,,,0.00,WUHU216HW,2013-02-19 05:45:00,
2013-02-18 21:50:00,29.2,17.7,29.72,WSW,248,1.1,2.7,62,0.00,,,0.00,WUHU216HW,2013-02-19 05:50:00,
2013-02-18 21:55:00,29.0,17.6,29.72,West,270,1.8,2.9,62,0.00,,,0.00,WUHU216HW,2013-02-19 05:55:00,
2013-02-18 22:01:00,29.0,17.9,29.72,SW,225,2.2,2.9,63,0.00,,,0.00,WUHU216HW,2013-02-19 06:01:00,
2013-02-18 22:06:00,29.0,17.9,29.72,SW,225,0.7,2.5,63,0.00,,,0.00,WUHU216HW,2013-02-19 06:06:00,
2013-02-18 22:11:00,28.8,17.8,29.72,WSW,248,0.2,1.8,63,0.00,,,0.00,WUHU216HW,2013-02-19 06:11:00,
2013-02-18 22:16:00,28.8,17.8,29.72,ESE,113,0.4,1.8,63,0.00,,,0.00,WUHU216HW,2013-02-19 06:16:00,
2013-02-18 22:21:00,28.6,18.0,29.72,NW,315,0.4,0.9,64,0.00,,,0.00,WUHU216HW,2013-02-19 06:21:00,
2013-02-18 22:26:00,29.0,18.3,29.71,WNW,293,0.4,2.5,64,0.00,,,0.00,WUHU216HW,2013-02-19 06:26:00,
2013-02-18 22:31:00,29.0,18.3,29.71,NW,315,0.7,2.5,64,0.00,,,0.00,WUHU216HW,2013-02-19 06:31:00,
2013-02-18 22:36:00,29.0,18.3,29.71,NW,315,0.4,2.0,64,0.00,,,0.00,WUHU216HW,2013-02-19 06:36:00,
2013-02-18 22:41:00,28.8,17.8,29.71,WSW,248,0.9,1.6,63,0.00,,,0.00,WUHU216HW,2013-02-19 06:41:00,
2013-02-18 22:46:00,28.8,17.8,29.71,SW,225,0.4,1.6,63,0.00,,,0.00,WUHU216HW,2013-02-19 06:46:00,
2013-02-18 22:51:00,28.4,17.5,29.70,West,270,0.0,1.3,63,0.00,,,0.00,WUHU216HW,2013-02-19 06:51:00,
2013-02-18 22:56:00,28.4,17.8,29.70,WSW,248,0.4,1.3,64,0.00,,,0.00,WUHU216HW,2013-02-19 06:56:00,
2013-02-18 23:01:00,28.3,17.6,29.70,WSW,248,0.0,1.3,64,0.00,,,0.00,WUHU216HW,2013-02-19 07:01:00,
2013-02-18 23:06:00,28.1,17.5,29.70,SW,225,0.0,1.1,64,0.00,,,0.00,WUHU216HW,2013-02-19 07:06:00,
2013-02-18 23:11:00,28.1,17.5,29.70,ESE,113,1.1,1.1,64,0.00,,,0.00,WUHU216HW,2013-02-19 07:11:00,
2013-02-18 23:16:00,27.9,17.3,29.70,North,0,0.0,1.1,64,0.00,,,0.00,WUHU216HW,2013-02-19 07:16:00,
2013-02-18 23:21:00,27.9,17.6,29.70,North,0,0.0,0.2,65,0.00,,,0.00,WUHU216HW,2013-02-19 07:21:00,
2013-02-18 23:26:00,27.7,17.5,29.70,WNW,293,0.4,0.4,65,0.00,,,0.00,WUHU216HW,2013-02-19 07:26:00,
2013-02-18 23:31:00,27.5,17.3,29.70,SSE,158,0.4,0.9,65,0.00,,,0.00,WUHU216HW,2013-02-19 07:31:00,
2013-02-18 23:36:00,27.5,17.3,29.70,WNW,293,0.2,1.1,65,0.00,,,0.00,WUHU216HW,2013-02-19 07:36:00,
2013-02-18 23:41:00,27.4,17.1,29.69,West,270,1.1,1.8,65,0.00,,,0.00,WUHU216HW,2013-02-19 07:41:00,
2013-02-18 23:46:00,27.4,17.5,29.69,WSW,248,1.6,1.8,66,0.00,,,0.00,WUHU216HW,2013-02-19 07:46:00,
2013-02-18 23:51:00,27.2,17.3,29.69,WSW,248,1.6,2.5,66,0.00,,,0.00,WUHU216HW,2013-02-19 07:51:00,
2013-02-18 23:57:00,27.2,17.3,29.68,SW,225,2.0,2.5,66,0.00,,,0.00,WUHU216HW,2013-02-19 07:57:00,